TimeAST,TemperatureF,Dew PointF,Humidity,Sea Level PressureIn,VisibilityMPH,Wind Direction,Wind SpeedMPH,Gust SpeedMPH,PrecipitationIn,Events,Conditions,WindDirDegrees,DateUTC
12:56 AM,73.0,70.0,90,30.01,10.0,Calm,Calm,-,0.02,,Mostly Cloudy,0,2013-02-06 04:56:00
1:56 AM,73.9,70.0,87,29.99,10.0,Calm,Calm,-,N/A,,Mostly Cloudy,0,2013-02-06 05:56:00
2:56 AM,73.0,70.0,90,29.98,10.0,West,3.5,-,N/A,,Mostly Cloudy,260,2013-02-06 06:56:00
3:56 AM,73.9,68.0,82,29.98,10.0,Calm,Calm,-,N/A,,Mostly Cloudy,0,2013-02-06 07:56:00
4:56 AM,73.9,69.1,85,29.99,10.0,Calm,Calm,-,N/A,,Overcast,0,2013-02-06 08:56:00
5:56 AM,73.9,68.0,82,30.00,10.0,Calm,Calm,-,N/A,,Mostly Cloudy,0,2013-02-06 09:56:00
6:56 AM,72.0,68.0,87,30.03,10.0,ESE,8.1,-,0.06,,Mostly Cloudy,120,2013-02-06 10:56:00
7:56 AM,73.9,66.0,76,30.04,10.0,Calm,Calm,-,N/A,,Mostly Cloudy,0,2013-02-06 11:56:00
8:56 AM,75.9,66.0,71,30.06,10.0,Calm,Calm,-,N/A,,Mostly Cloudy,0,2013-02-06 12:56:00
9:56 AM,79.0,69.1,72,30.06,10.0,East,9.2,-,N/A,,Mostly Cloudy,90,2013-02-06 13:56:00
10:56 AM,82.0,64.9,56,30.05,10.0,East,11.5,21.9,N/A,,Scattered Clouds,100,2013-02-06 14:56:00
11:56 AM,81.0,66.0,60,30.04,10.0,East,16.1,25.3,N/A,,Scattered Clouds,90,2013-02-06 15:56:00
12:56 PM,81.0,66.0,60,30.01,10.0,East,17.3,23.0,N/A,,Mostly Cloudy,80,2013-02-06 16:56:00
1:56 PM,81.0,66.0,60,29.99,10.0,East,13.8,-,N/A,,Mostly Cloudy,80,2013-02-06 17:56:00
2:56 PM,82.0,64.9,56,29.97,10.0,East,8.1,-,N/A,,Mostly Cloudy,80,2013-02-06 18:56:00
3:56 PM,81.0,66.0,60,29.96,10.0,ENE,12.7,-,N/A,,Mostly Cloudy,70,2013-02-06 19:56:00
4:56 PM,80.1,66.9,64,29.97,10.0,ENE,13.8,-,N/A,,Scattered Clouds,70,2013-02-06 20:56:00
5:56 PM,78.1,68.0,71,29.97,10.0,East,12.7,-,N/A,,Partly Cloudy,80,2013-02-06 21:56:00
6:56 PM,75.9,69.1,79,29.98,10.0,East,6.9,-,N/A,,Partly Cloudy,90,2013-02-06 22:56:00
7:56 PM,75.9,69.1,79,30.00,10.0,East,5.8,-,N/A,,Scattered Clouds,100,2013-02-06 23:56:00
8:56 PM,77.0,69.1,76,30.01,10.0,Calm,Calm,-,N/A,,Scattered Clouds,0,2013-02-07 00:56:00
9:56 PM,75.9,69.1,79,30.02,10.0,ESE,4.6,-,N/A,,Scattered Clouds,120,2013-02-07 01:56:00
10:56 PM,75.9,69.1,79,30.03,10.0,Calm,Calm,-,N/A,,Scattered Clouds,0,2013-02-07 02:56:00
11:56 PM,75.9,68.0,76,30.02,10.0,Calm,Calm,-,N/A,,Scattered Clouds,0,2013-02-07 03:56:00